Wind_Speed
36 34 33 34 35 37 36 36 39 42 39 36 35 34 32 30 28 27 26 25 25 24 23 24 25 26 27 27 28 28 28 28 28 29 30 32 34 37 39 39 40 38 38 39
36 34 33 34 36 38 38 38 40 43 41 41 41 39 36 35 33 31 31 30 30 29 28 28 28 28 29 31 31 31 31 31 31 32 33 36 38 41 44 45 44 41 38 36
35 34 33 33 34 36 38 39 41 44 46 45 44 41 40 40 38 36 35 35 34 33 32 32 31 30 31 32 33 33 33 34 34 35 36 38 40 44 45 46 42 38 35 31
34 34 31 32 33 34 36 38 40 42 45 45 48 43 39 44 43 42 41 40 39 37 36 34 33 31 31 31 33 33 34 35 36 37 38 40 42 45 46 43 40 37 31 28
31 31 30 30 31 32 34 36 38 41 44 46 48 46 38 44 44 45 45 44 43 40 38 36 34 32 32 32 33 34 35 36 38 39 40 42 43 46 46 44 40 33 27 25
29 28 29 30 31 32 33 35 36 39 41 44 44 44 38 41 44 44 45 45 43 40 38 35 34 32 32 32 33 35 36 38 40 41 42 43 44 44 44 43 39 33 30 27
27 27 28 29 30 32 33 34 34 35 38 37 39 40 35 43 42 41 41 41 39 37 34 33 32 32 32 33 34 35 37 39 40 42 42 42 41 41 41 40 39 35 32 29
20 21 24 26 27 29 31 32 33 27 26 27 35 33 36 39 36 35 35 34 32 30 29 28 27 28 30 31 33 35 36 38 40 40 40 39 39 39 40 40 39 37 35 34
14 15 19 23 25 28 30 31 30 30 27 23 23 30 36 33 31 30 29 28 26 25 23 22 22 23 25 27 30 32 34 36 38 38 38 38 38 39 40 40 40 39 38 37
12 13 15 20 23 26 28 28 30 31 28 24 23 25 26 29 28 27 26 25 24 23 22 22 22 23 25 27 29 31 33 35 36 37 38 38 39 39 40 40 40 39 38 38
11 12 13 16 19 21 25 28 30 29 26 23 20 20 26 27 26 25 24 23 23 24 24 25 26 27 28 30 31 33 34 36 37 37 38 39 40 40 40 40 41 41 41 42
11 11 13 15 18 20 23 26 28 29 28 27 23 24 26 25 24 23 23 23 24 24 25 27 28 30 31 33 34 35 36 37 38 38 39 40 41 42 42 43 44 45 45 46
12 12 12 14 18 21 24 26 29 30 29 27 24 28 28 27 26 25 25 26 26 27 27 28 30 31 33 34 35 36 37 38 39 39 40 42 43 44 45 47 48 48 49 49
15 16 17 18 19 22 23 26 28 29 28 28 28 32 31 30 30 30 30 30 31 31 31 32 33 35 36 38 39 40 41 41 42 43 44 45 45 47 49 50 51 52 51 51
16 19 21 24 25 25 26 27 28 31 32 32 33 34 35 34 34 34 34 35 36 36 37 38 39 40 41 43 43 44 44 45 45 45 46 46 48 50 51 53 53 52 52 53
15 19 21 24 26 28 29 30 31 32 33 35 36 37 37 37 37 37 38 39 40 41 41 42 44 45 46 46 46 46 46 45 45 46 47 48 50 51 52 52 52 52 52 53
14 16 18 21 24 26 29 32 32 34 34 35 37 38 38 38 39 39 40 41 43 43 44 44 45 45 45 44 43 42 42 43 44 46 48 50 51 51 51 51 52 53 53 53
13 14 16 18 19 23 29 29 31 33 35 36 37 37 38 38 39 39 39 39 40 40 40 39 39 40 40 40 40 41 42 43 45 47 49 50 50 51 51 51 52 52 52 52
14 14 14 15 17 20 24 25 28 30 33 33 35 35 35 36 37 37 37 37 38 36 36 36 37 38 37 38 39 40 42 44 46 48 49 49 49 50 50 50 50 51 51 51
14 13 12 13 14 18 19 19 21 24 27 28 29 30 30 30 32 32 33 33 33 32 32 34 35 37 39 40 41 42 44 45 46 46 47 47 48 48 49 49 50 50 49 49
13 12 11 11 13 15 14 15 17 20 22 23 24 25 26 28 28 28 28 29 31 32 33 35 36 38 39 40 41 42 42 43 44 45 46 47 47 48 48 47 47 46 46 46
13 12 11 11 12 13 12 13 16 19 20 21 22 22 23 24 25 27 28 29 30 31 32 33 35 36 37 38 39 41 42 43 43 44 44 44 43 43 43 43 43 43 43 44
13 11 11 11 11 11 11 12 14 16 18 20 21 22 23 24 25 26 27 29 30 31 32 33 34 35 36 38 39 39 39 40 40 40 39 39 39 39 40 40 41 41 42 42
13 12 11 11 11 11 11 12 13 15 17 19 20 21 22 24 25 26 27 28 29 30 31 32 33 34 34 35 35 35 35 35 35 35 36 37 37 38 38 38 38 38 38 37
13 12 11 11 12 12 13 13 14 15 16 18 19 21 22 24 25 25 26 26 26 27 27 28 29 29 29 29 30 30 30 31 32 34 34 35 36 35 35 35 34 33 32 31
13 12 11 11 11 12 13 13 14 15 16 17 19 20 21 21 21 21 21 21 21 21 22 22 23 23 24 25 25 27 28 30 31 32 33 33 32 31 30 29 28 27 25 24
Wind_Direction
222 227 229 227 222 221 218 218 221 225 230 230 232 235 240 243 245 247 249 252 256 261 265 268 270 273 278 281 283 285 287 289 292 295 298 299 299 297 295 295 293 290 284 280
220 226 227 227 224 223 220 218 220 226 232 233 236 238 241 246 248 249 251 254 257 260 265 269 272 274 275 277 279 279 282 285 286 288 291 294 296 295 296 294 295 291 287 283
218 222 225 227 226 225 224 221 221 224 229 234 239 243 247 249 250 252 254 257 260 262 265 269 271 272 272 274 275 275 278 280 282 286 290 292 294 294 296 298 297 299 297 287
215 219 222 225 226 225 226 225 224 225 229 232 238 238 246 249 251 255 257 260 263 265 267 269 270 269 268 269 269 270 274 278 281 285 288 291 292 295 297 300 302 307 307 294
213 216 218 222 224 224 226 226 226 227 229 232 239 238 239 254 254 254 258 261 265 267 269 269 268 266 264 264 265 267 272 276 279 283 285 289 291 294 298 303 310 315 314 305
211 212 215 217 220 222 225 226 227 228 231 235 238 241 239 249 253 255 258 261 264 266 268 267 265 263 261 262 262 265 268 272 276 280 283 287 290 294 299 306 311 315 313 308
210 213 214 216 220 223 225 225 226 229 233 237 239 241 237 245 251 254 256 259 262 265 266 265 263 261 260 259 259 261 265 270 274 278 282 285 288 292 298 304 308 311 310 306
213 218 220 220 223 227 227 227 224 225 236 238 243 241 240 246 249 251 255 258 261 263 263 261 259 257 256 256 257 259 263 268 272 276 279 282 286 290 296 301 305 307 305 303
208 219 227 227 226 226 227 227 226 227 225 226 238 242 243 246 248 251 256 259 261 261 259 257 255 253 252 253 255 258 261 265 269 273 277 282 286 291 295 299 303 303 302 299
206 215 231 235 234 231 228 227 225 226 227 232 236 248 251 248 249 254 258 259 258 256 252 249 250 251 251 253 255 257 260 264 268 272 277 282 285 291 295 299 301 301 300 297
209 215 229 236 237 236 233 230 229 228 227 229 234 242 246 250 252 254 257 256 255 253 249 249 250 251 253 254 257 259 261 264 268 272 277 282 286 292 296 298 300 299 299 298
212 217 225 233 233 231 230 228 228 228 231 233 228 241 248 251 251 252 253 255 256 255 254 254 254 255 256 258 260 261 263 266 270 274 279 284 288 293 295 297 299 299 298 298
224 225 228 237 236 231 230 229 229 231 232 237 238 245 247 250 251 252 254 257 258 259 259 259 260 260 261 262 263 264 266 269 273 277 281 285 289 291 293 296 297 297 298 298
247 241 232 229 232 236 236 235 233 234 237 243 243 246 250 253 255 257 258 259 261 262 263 265 265 266 266 266 267 268 271 273 276 280 283 286 289 291 292 294 295 295 296 296
257 253 248 244 241 238 238 237 237 238 240 244 249 253 256 257 258 259 260 262 263 264 266 267 269 270 270 270 270 271 273 275 277 281 284 286 288 290 291 292 293 293 294 293
269 262 256 251 249 247 245 243 242 242 244 247 251 254 257 259 260 260 261 263 264 266 267 269 271 271 271 270 270 271 273 276 278 281 283 285 288 289 289 290 291 291 291 290
284 275 267 259 254 252 250 248 247 248 248 249 252 255 257 258 260 260 261 262 264 265 267 269 268 268 269 269 270 271 275 278 280 282 284 286 287 288 288 288 289 289 288 288
298 286 277 269 261 252 250 251 250 249 250 251 253 255 256 258 258 258 259 260 261 262 262 263 264 267 269 273 276 279 281 281 282 283 284 285 286 286 286 287 287 287 287 288
309 297 285 274 266 260 259 253 250 252 253 254 256 257 259 260 260 259 259 259 259 259 261 265 270 272 276 279 280 280 280 281 282 283 284 284 285 285 286 286 286 286 287 288
318 308 296 282 270 264 264 258 252 251 253 255 256 256 255 256 256 257 258 258 261 265 268 270 272 275 278 280 281 281 282 283 284 284 285 285 285 285 286 286 287 287 288 289
323 314 302 289 275 269 268 259 251 246 246 249 251 252 252 252 253 258 261 264 266 269 271 273 275 277 279 281 282 283 284 285 285 285 285 285 285 286 287 287 288 289 290 291
324 317 305 292 282 277 271 260 253 249 248 250 254 257 258 260 262 264 267 269 271 273 275 277 278 280 281 283 284 285 286 286 286 286 286 286 286 286 287 288 289 290 291 292
323 317 308 296 289 283 275 267 260 256 255 257 260 263 265 267 269 271 273 275 277 278 279 280 282 283 285 286 287 288 288 288 287 287 287 287 287 288 289 290 291 292 293 294
322 315 307 298 290 286 280 274 267 262 264 266 268 269 271 273 274 275 277 278 280 281 282 284 286 287 288 288 289 289 289 288 288 288 289 289 290 291 292 294 294 295 295 296
322 314 307 299 292 288 284 279 274 272 270 271 273 275 277 278 280 281 282 282 283 284 285 287 288 288 289 290 290 290 291 292 292 293 294 294 295 295 296 296 296 296 296 296
320 315 307 299 295 290 288 284 280 276 274 274 276 278 278 280 282 283 285 286 287 288 290 291 292 293 294 295 296 297 298 298 298 298 298 298 298 298 297 297 296 296 296 298
Height
5797 5804 5808 5813 5818 5822 5827 5831 5835 5838 5840 5847 5850 5854 5857 5860 5864 5867 5869 5872 5874 5875 5876 5876 5877 5878 5877 5877 5876 5875 5874 5872 5870 5867 5865 5863 5860 5856 5853 5849 5847 5843 5840 5836
5791 5797 5801 5805 5810 5815 5821 5826 5830 5833 5836 5841 5844 5848 5852 5854 5858 5861 5863 5865 5867 5869 5871 5871 5872 5873 5873 5872 5871 5871 5869 5867 5865 5862 5859 5857 5854 5850 5846 5842 5837 5835 5832 5829
5784 5789 5794 5799 5804 5810 5815 5820 5825 5828 5831 5835 5838 5843 5847 5849 5852 5854 5857 5858 5860 5862 5864 5865 5866 5867 5866 5866 5866 5865 5864 5861 5859 5856 5854 5852 5848 5843 5838 5835 5831 5827 5824 5822
5775 5781 5788 5793 5798 5804 5809 5814 5819 5822 5826 5830 5832 5839 5842 5840 5844 5847 5849 5850 5852 5855 5857 5858 5859 5860 5860 5860 5859 5859 5858 5856 5854 5851 5849 5846 5842 5838 5834 5829 5826 5822 5818 5816
5771 5776 5782 5787 5793 5798 5803 5808 5813 5816 5819 5822 5824 5832 5838 5832 5836 5838 5840 5842 5844 5846 5848 5850 5850 5851 5852 5852 5852 5852 5851 5850 5848 5845 5843 5840 5837 5833 5829 5824 5821 5817 5814 5812
5766 5770 5776 5781 5786 5791 5796 5801 5806 5809 5813 5816 5819 5824 5831 5828 5827 5829 5832 5833 5835 5837 5839 5840 5842 5843 5844 5845 5845 5845 5844 5843 5841 5839 5836 5834 5831 5828 5824 5820 5816 5812 5810 5808
5762 5767 5771 5776 5781 5786 5791 5796 5801 5804 5807 5811 5812 5816 5822 5818 5820 5822 5824 5825 5827 5829 5831 5832 5833 5834 5836 5836 5837 5837 5836 5835 5834 5832 5829 5827 5824 5821 5818 5814 5811 5808 5806 5804
5761 5765 5768 5772 5777 5781 5786 5791 5796 5801 5805 5807 5805 5810 5811 5812 5814 5815 5817 5818 5819 5821 5822 5824 5825 5826 5827 5828 5828 5829 5828 5827 5826 5824 5821 5819 5816 5814 5810 5807 5804 5802 5800 5798
5759 5763 5764 5767 5771 5776 5780 5784 5789 5793 5796 5801 5803 5801 5802 5804 5807 5809 5810 5811 5812 5814 5815 5816 5817 5818 5819 5819 5820 5820 5820 5819 5817 5815 5813 5810 5808 5806 5803 5799 5796 5794 5791 5789
5756 5760 5762 5764 5767 5770 5775 5778 5782 5785 5790 5794 5798 5797 5798 5798 5800 5802 5803 5805 5806 5807 5808 5809 5810 5811 5812 5812 5812 5812 5812 5810 5809 5807 5805 5802 5800 5797 5794 5790 5787 5785 5782 5780
5755 5758 5760 5761 5763 5766 5770 5773 5776 5780 5784 5789 5793 5796 5790 5792 5794 5796 5797 5798 5800 5801 5802 5803 5803 5804 5804 5805 5804 5804 5803 5802 5800 5798 5796 5794 5791 5788 5785 5781 5778 5775 5772 5769
5753 5755 5757 5758 5760 5762 5765 5768 5771 5775 5777 5780 5785 5789 5785 5786 5788 5790 5791 5792 5793 5794 5795 5795 5796 5796 5796 5796 5796 5795 5794 5793 5791 5789 5787 5784 5781 5778 5775 5772 5769 5765 5762 5758
5750 5753 5755 5756 5758 5759 5760 5762 5765 5768 5771 5774 5778 5781 5778 5779 5782 5783 5785 5786 5786 5786 5787 5787 5787 5787 5787 5787 5786 5785 5784 5782 5781 5779 5776 5774 5771 5768 5765 5761 5758 5754 5750 5746
5746 5748 5751 5753 5752 5754 5756 5758 5760 5763 5766 5768 5770 5770 5771 5773 5775 5776 5777 5778 5778 5778 5778 5778 5778 5778 5777 5777 5776 5775 5773 5771 5770 5768 5765 5763 5760 5757 5753 5750 5746 5742 5738 5734
5741 5742 5743 5745 5746 5748 5750 5752 5754 5756 5758 5761 5761 5762 5763 5765 5767 5768 5768 5769 5769 5769 5769 5769 5768 5768 5767 5766 5765 5763 5762 5760 5758 5756 5754 5751 5748 5744 5741 5737 5733 5729 5725 5720
5734 5735 5736 5737 5739 5740 5742 5743 5745 5748 5750 5752 5753 5754 5755 5756 5757 5758 5759 5759 5759 5759 5759 5758 5757 5756 5755 5754 5752 5751 5749 5747 5746 5744 5741 5738 5735 5731 5727 5723 5719 5715 5711 5706
5728 5729 5729 5730 5731 5732 5734 5734 5736 5738 5740 5743 5744 5745 5745 5746 5747 5748 5748 5748 5748 5748 5747 5747 5745 5744 5743 5741 5740 5738 5736 5735 5733 5730 5728 5725 5721 5717 5713 5709 5705 5701 5697 5692
5723 5723 5723 5723 5724 5725 5726 5726 5727 5729 5730 5732 5733 5735 5735 5736 5737 5737 5737 5737 5737 5736 5736 5735 5734 5732 5731 5729 5727 5726 5724 5722 5720 5717 5714 5711 5707 5703 5699 5695 5691 5687 5683 5679
5718 5718 5717 5717 5717 5718 5717 5718 5719 5721 5721 5722 5724 5725 5726 5726 5726 5727 5727 5727 5727 5726 5725 5724 5723 5721 5720 5718 5716 5714 5712 5709 5707 5704 5700 5697 5693 5689 5685 5681 5678 5674 5670 5666
5715 5713 5713 5712 5712 5711 5711 5711 5711 5714 5714 5714 5714 5715 5717 5717 5718 5718 5717 5717 5716 5716 5715 5714 5713 5711 5710 5707 5705 5702 5700 5697 5694 5691 5687 5683 5680 5676 5672 5669 5665 5661 5657 5653
5712 5710 5708 5707 5706 5705 5706 5705 5706 5708 5708 5707 5707 5707 5708 5709 5709 5709 5708 5708 5707 5707 5706 5705 5704 5702 5700 5697 5694 5691 5688 5685 5682 5678 5674 5671 5667 5663 5659 5656 5652 5648 5644 5640
5708 5707 5705 5703 5703 5703 5701 5701 5702 5702 5701 5701 5701 5701 5701 5701 5701 5701 5701 5700 5700 5699 5698 5696 5694 5692 5690 5687 5684 5681 5677 5674 5670 5666 5662 5658 5654 5651 5647 5644 5640 5636 5632 5629
5705 5704 5702 5701 5701 5698 5697 5697 5697 5697 5697 5696 5696 5696 5696 5696 5695 5695 5694 5693 5692 5691 5689 5688 5685 5683 5680 5677 5673 5670 5666 5662 5658 5654 5650 5647 5643 5640 5636 5632 5628 5625 5621 5617
5702 5700 5698 5697 5695 5694 5693 5693 5692 5692 5692 5692 5691 5691 5690 5690 5689 5688 5687 5686 5685 5683 5681 5679 5676 5674 5670 5667 5663 5660 5656 5652 5648 5644 5640 5636 5633 5629 5625 5621 5617 5614 5610 5607
5698 5696 5695 5693 5692 5691 5689 5689 5688 5688 5687 5687 5686 5685 5684 5684 5683 5682 5680 5679 5677 5675 5673 5671 5668 5665 5662 5658 5654 5651 5647 5642 5638 5634 5630 5626 5622 5618 5614 5611 5608 5604 5601 5598
5694 5693 5691 5690 5688 5687 5686 5684 5683 5683 5682 5681 5680 5679 5678 5677 5676 5675 5674 5672 5671 5669 5666 5664 5661 5658 5655 5651 5647 5643 5638 5634 5629 5624 5620 5616 5612 5609 5605 5602 5599 5596 5594 5591